RH
15 17 18 19 20 20 20 21 20 20 20 19 19 20 22 23 24 25 26 28 28 26 27 28 29 30 32 34 37 40 48 58 68 76 84 90 93 95 97 100 101 101 100 101 104 101 98 100 102 102 101 98 98 99 96 96 97 99 100 99 99 99 98 97 96 94 92 90 86 83 81 79 77 77 77 76 75 73 70 66 63 60 57 54 52 50
16 17 19 20 21 22 22 22 23 23 22 22 23 23 25 27 26 26 29 30 29 30 31 32 35 35 36 38 40 46 55 63 72 82 88 90 92 95 98 100 100 100 99 103 106 101 98 100 100 99 98 97 97 95 92 92 93 94 94 94 93 92 93 92 91 90 89 88 85 82 80 77 75 73 72 70 69 68 67 65 63 60 58 56 54 51
16 17 19 21 22 24 24 24 24 24 24 25 25 26 28 30 29 27 29 31 32 34 35 37 38 36 38 42 46 52 60 67 77 84 87 90 96 100 101 100 100 100 100 102 104 101 100 100 97 96 96 97 97 93 90 90 90 92 93 93 92 91 91 91 89 88 86 83 81 79 76 73 71 69 68 65 63 61 59 58 56 55 53 52 51 49
15 18 19 21 24 25 26 25 26 24 25 27 28 29 30 32 33 30 29 31 32 36 40 42 39 37 42 45 48 55 63 72 80 82 87 96 101 101 100 100 99 100 100 101 102 100 100 101 101 98 98 100 99 93 89 88 89 89 87 86 88 89 90 90 88 86 84 81 79 77 74 71 67 64 62 59 57 55 52 50 49 47 45 43 42 41
16 18 20 23 25 27 27 26 26 24 23 27 30 32 33 34 35 34 34 32 30 36 42 44 42 41 42 43 48 58 69 77 79 83 93 102 102 100 100 100 100 100 101 100 101 100 100 101 101 100 100 102 102 97 92 89 87 84 81 82 85 86 85 82 80 77 75 74 71 70 68 65 63 61 57 54 51 49 47 45 43 41 39 37 35 33
16 19 22 25 26 28 28 27 28 25 22 25 30 33 35 36 35 35 37 34 31 35 42 48 50 45 39 42 52 63 74 80 82 91 102 103 100 100 100 100 100 101 101 101 101 101 99 98 101 102 101 101 102 99 93 89 87 83 77 74 72 71 68 67 66 65 63 62 61 59 58 57 55 54 52 50 48 45 43 41 39 37 35 33 30 28
17 21 23 25 27 28 28 28 29 25 23 26 29 33 36 38 37 36 36 36 35 37 43 50 55 49 39 40 53 67 75 79 87 98 103 103 100 99 100 100 101 101 101 102 101 100 99 99 104 103 100 102 100 94 91 89 89 86 77 67 64 63 62 61 58 56 53 51 51 49 48 47 46 45 44 43 41 39 38 36 34 32 30 28 26 24
18 23 24 25 26 28 29 30 29 27 25 28 31 34 37 38 37 37 35 36 36 34 39 44 48 46 36 38 56 69 72 75 86 95 97 100 100 99 101 101 101 102 102 102 100 100 100 101 102 101 100 103 100 94 94 95 98 98 86 71 68 68 64 56 48 43 41 38 38 37 37 36 35 35 34 33 33 31 30 29 28 26 25 23 21 20
18 23 24 24 25 27 31 32 31 29 28 31 34 35 37 37 36 36 34 33 31 30 35 37 40 41 31 39 61 66 65 71 80 88 91 97 100 100 100 100 101 103 102 103 102 102 102 100 100 101 101 101 100 100 100 101 102 95 79 69 68 62 50 40 33 29 26 23 22 22 22 22 22 22 22 22 23 22 22 21 20 19 17 16 15 14
19 22 23 23 24 26 31 35 34 34 34 35 36 35 36 37 35 36 34 31 27 27 35 35 40 46 33 37 62 65 62 73 84 92 96 98 100 99 100 100 101 101 100 101 102 102 101 99 100 101 101 102 101 100 101 101 99 88 78 73 62 44 31 25 22 18 15 13 12 11 11 11 11 10 11 11 11 11 11 11 10 10 8 8 7 7
18 21 22 22 24 25 29 36 37 38 39 39 39 37 35 35 35 35 33 30 26 26 36 39 47 58 44 38 60 68 69 83 94 99 100 100 102 100 100 101 100 100 100 100 100 100 100 100 102 101 100 101 101 101 102 101 98 89 77 62 42 28 23 21 17 14 13 11 9 9 8 7 7 6 6 6 6 6 5 5 5 5 4 4 5 8
20 21 23 22 24 26 28 33 36 39 41 41 44 43 38 36 35 33 31 30 30 30 38 45 50 58 50 45 62 75 83 96 101 101 101 101 101 99 100 101 100 101 101 101 101 100 101 101 101 101 101 101 100 97 93 87 82 73 56 39 27 23 21 17 15 14 13 12 11 10 8 8 8 7 7 6 6 5 5 6 5 5 7 10 13 15
22 21 25 25 29 33 32 31 32 37 42 44 47 49 47 45 39 37 36 33 36 34 36 49 53 51 49 51 65 82 92 100 100 100 100 100 100 100 102 102 101 101 101 102 101 99 100 100 99 101 98 90 83 79 74 68 62 51 37 27 22 19 17 17 17 16 14 14 12 11 10 10 9 9 9 7 7 7 8 8 8 11 15 18 21 23
22 21 26 29 34 40 40 38 36 39 46 50 52 54 55 55 48 45 44 41 46 42 36 48 54 50 52 54 65 83 95 99 101 101 100 99 99 99 100 100 99 98 98 98 97 94 91 88 84 79 71 61 57 57 54 48 40 31 24 20 18 18 18 18 17 16 15 14 13 11 11 10 11 11 10 10 10 9 9 12 16 20 23 24 27 31
28 27 31 35 37 43 47 46 43 45 49 52 55 56 56 58 53 48 49 49 52 46 38 42 44 48 56 57 67 86 95 97 100 99 98 96 91 88 87 84 79 75 72 69 68 65 59 52 46 41 37 36 34 33 30 26 22 20 18 18 17 17 17 16 16 15 15 13 12 12 11 12 13 12 11 13 12 10 15 22 24 25 26 29 33 36
32 35 37 41 41 42 49 50 47 48 52 52 54 54 54 58 56 48 45 43 43 41 39 40 36 37 45 51 69 89 93 97 101 98 97 94 81 67 55 45 39 36 33 31 31 30 27 25 23 23 22 22 21 19 18 18 17 16 15 15 15 14 14 14 13 13 13 12 12 11 12 13 14 13 14 13 11 16 26 29 27 27 30 34 37 38
28 36 37 40 41 40 46 53 54 54 55 54 54 53 52 54 56 52 46 39 34 34 38 42 35 28 35 48 70 91 99 100 93 78 69 63 49 36 27 22 21 21 20 19 18 17 17 17 17 17 16 15 16 16 15 14 14 13 14 14 13 13 12 12 12 13 12 12 12 12 14 14 14 15 14 12 19 31 34 29 28 30 33 37 40 41
23 31 34 34 36 38 41 48 54 55 55 55 55 55 52 49 50 54 54 50 43 34 32 35 32 28 36 51 69 88 93 76 53 36 28 25 21 17 16 16 16 15 15 14 14 14 14 14 14 14 15 15 16 15 15 15 15 15 15 14 13 13 12 13 13 13 12 12 13 14 15 15 16 14 12 20 36 43 35 29 32 33 33 37 41 42
20 25 31 31 32 36 36 38 46 52 53 55 55 55 54 50 46 47 57 66 61 45 31 23 22 23 30 50 74 82 67 39 20 18 17 16 16 15 13 13 13 14 15 14 14 14 14 13 14 14 14 15 15 15 15 15 16 16 15 15 15 14 14 14 14 14 14 15 15 15 14 15 15 13 17 34 48 45 36 34 36 35 35 38 41 44
22 21 27 32 31 31 30 33 43 50 52 55 55 55 53 50 45 41 48 61 60 51 38 22 15 16 25 57 79 62 33 18 15 17 15 12 13 12 12 14 14 14 14 15 15 15 15 14 13 13 13 13 14 14 14 15 15 15 15 15 15 15 15 15 16 16 16 16 15 14 14 14 13 15 29 46 50 46 43 41 39 39 41 42 45 49
24 21 22 27 26 26 31 37 45 51 54 55 56 57 55 50 45 38 35 39 43 46 44 31 18 13 28 58 58 29 14 17 16 12 10 12 18 27 37 42 38 30 23 19 16 13 14 15 15 15 14 14 14 14 14 14 15 15 16 17 17 17 17 17 17 16 16 15 14 14 13 12 14 25 44 55 55 54 54 52 50 50 51 51 54 55
24 23 21 23 23 23 26 30 38 49 56 59 59 59 57 52 47 40 31 28 33 37 37 33 22 12 22 37 27 12 14 15 11 9 11 23 44 65 79 83 78 70 61 51 40 28 19 15 14 14 14 15 15 16 16 16 16 16 16 16 16 16 16 16 15 15 14 14 13 12 12 15 25 41 54 58 58 59 59 59 59 59 61 63 64 63
26 23 20 21 25 25 23 23 34 50 59 60 61 60 57 53 48 44 37 29 29 29 27 25 17 10 15 18 12 12 13 10 8 9 18 44 72 86 89 87 86 87 86 82 75 67 53 40 31 25 21 19 17 17 17 17 18 20 22 26 30 34 35 33 28 23 20 18 18 19 21 28 39 49 53 55 58 59 59 60 60 60 64 69 73 75
30 28 22 18 19 20 19 20 32 52 64 64 62 60 57 53 46 41 35 28 24 24 26 23 12 7 10 11 10 11 9 8 7 10 33 65 81 84 83 83 85 86 86 84 83 86 86 78 68 59 52 47 43 43 44 44 47 53 58 64 69 72 71 66 59 53 48 45 43 42 43 47 51 52 54 57 59 60 58 55 55 57 61 65 72 82
35 38 34 26 22 19 18 20 30 48 63 67 64 61 57 52 45 38 29 24 20 21 26 23 11 6 8 8 9 9 8 8 5 15 51 77 80 78 79 82 85 84 87 89 86 88 94 94 90 84 78 74 71 72 74 77 80 84 87 88 88 89 88 86 84 81 77 72 67 63 61 58 57 56 56 56 56 56 55 52 50 53 58 62 69 81
35 44 48 45 45 47 46 46 49 54 61 66 64 61 58 53 46 38 29 24 20 19 23 21 11 6 7 7 8 7 7 7 4 18 51 73 79 79 77 81 87 87 91 96 94 93 96 96 94 91 88 85 82 81 84 89 93 96 97 97 96 96 97 99 99 96 91 83 75 71 67 62 59 56 55 55 54 54 55 55 53 55 60 65 73 82
32 43 54 56 56 62 63 60 61 62 61 64 65 61 58 54 47 38 29 25 24 20 17 16 10 7 6 6 7 7 6 6 6 17 40 62 75 78 77 83 90 91 94 98 97 95 95 94 93 91 90 90 90 90 90 92 94 96 99 100 100 102 104 104 102 98 94 88 81 77 73 68 64 61 59 59 58 57 59 62 62 63 67 71 78 83
30 37 51 57 55 57 60 58 59 64 64 64 65 63 59 54 48 39 30 26 26 24 17 11 8 6 6 6 7 7 6 5 8 17 35 60 75 76 77 85 89 90 94 95 93 91 90 89 89 90 90 90 89 91 93 94 96 97 100 101 102 105 105 103 98 94 91 87 81 76 73 72 71 69 68 66 64 62 63 65 69 73 77 79 81 81
31 34 41 49 50 50 54 53 51 59 65 65 65 65 61 56 50 40 32 27 26 26 19 11 7 6 5 6 6 7 6 5 9 18 36 60 73 73 76 82 83 82 85 88 91 93 92 90 88 88 90 87 86 90 94 96 98 100 102 102 101 99 97 96 94 90 86 81 76 73 73 76 78 81 83 82 79 76 71 71 74 78 84 87 84 79
32 33 34 40 44 42 45 47 46 53 60 62 64 64 61 58 52 42 34 28 25 24 18 10 7 6 4 5 6 6 5 5 11 22 36 52 65 71 78 80 76 77 81 83 85 89 92 94 92 90 90 87 87 91 95 97 98 99 99 96 92 88 87 89 92 92 90 85 81 83 85 86 88 90 91 91 92 92 89 87 83 81 86 93 93 88
31 33 32 33 35 36 38 39 43 52 56 57 60 62 60 59 54 45 37 30 24 20 16 10 7 6 4 5 5 5 5 6 13 28 40 52 66 76 80 78 75 76 79 76 72 74 80 87 91 91 90 88 88 92 95 97 96 94 89 83 82 84 86 90 95 98 97 93 93 97 97 96 97 97 96 96 98 100 101 101 98 93 94 99 102 101
32 32 29 26 28 32 33 35 41 48 50 51 56 60 62 62 57 47 38 30 24 19 16 11 8 6 4 5 5 4 5 7 16 32 47 60 73 80 79 77 75 75 73 67 62 63 67 73 78 83 85 86 87 91 95 95 91 85 79 78 83 88 89 94 99 102 102 100 99 102 102 101 100 99 99 99 100 100 100 102 102 101 100 100 103 103
33 33 29 26 25 27 30 36 40 41 43 52 62 65 66 66 60 50 39 30 23 19 16 12 8 6 5 4 5 4 5 8 18 36 53 64 72 76 75 75 75 75 72 64 57 58 62 66 69 73 77 80 83 86 88 86 81 78 79 84 88 90 91 95 99 101 104 104 101 100 102 102 100 100 100 100 100 101 100 100 100 100 100 101 102 100
34 36 34 31 28 28 32 32 33 40 53 65 70 71 71 69 62 53 42 31 24 20 17 13 9 7 5 5 5 4 5 10 20 39 58 65 67 68 70 73 76 77 74 65 58 56 60 65 70 74 79 81 84 85 83 80 79 82 88 92 91 90 92 94 97 100 103 103 100 99 101 100 99 100 101 100 99 100 99 100 100 100 100 102 104 103
34 37 38 34 30 32 33 30 35 52 66 71 73 74 75 71 65 57 45 34 26 20 18 15 11 8 5 4 4 4 6 11 22 42 60 65 66 67 69 72 76 78 74 66 56 51 51 56 64 72 79 83 84 84 82 84 88 93 94 93 91 91 92 93 96 99 101 102 101 99 98 97 96 98 101 102 100 100 100 100 100 100 100 101 103 102
36 38 40 38 32 30 33 39 50 58 58 62 72 76 74 71 68 61 49 36 27 22 19 15 12 10 7 5 4 4 5 11 25 43 57 63 66 68 69 72 76 78 76 65 53 46 43 44 49 56 66 77 84 88 91 94 98 99 96 93 90 88 89 93 99 102 103 105 105 100 95 92 91 92 96 98 99 100 102 103 102 102 101 99 97 94
41 42 45 45 40 36 37 40 43 45 50 62 75 78 77 76 73 66 54 40 30 23 20 17 13 11 8 6 4 3 3 9 23 40 54 61 66 68 70 73 76 80 78 67 55 50 45 40 40 44 54 69 85 95 101 102 103 102 96 90 87 85 83 87 95 102 105 106 106 105 101 99 98 99 99 99 100 102 103 104 105 106 105 104 102 100
43 46 51 52 48 45 46 44 39 41 54 70 80 84 82 78 73 68 58 44 33 25 21 18 14 12 9 7 5 3 3 6 15 32 48 57 61 64 67 70 74 80 80 69 60 58 52 43 38 39 48 66 83 96 102 103 101 98 92 87 85 81 74 71 75 87 97 102 104 104 101 98 97 97 97 97 98 98 98 98 98 98 99 100 99 98
44 47 53 55 52 51 56 61 59 56 62 74 83 87 86 80 75 70 60 48 38 29 22 19 16 13 10 7 5 4 3 3 8 23 41 52 57 61 64 65 67 77 84 78 67 62 60 51 42 41 51 65 75 80 85 91 95 95 92 88 81 73 67 63 63 68 78 84 85 84 82 81 81 83 84 84 83 83 83 82 80 78 77 76 74 71
47 48 50 55 58 57 57 63 69 70 74 80 82 81 84 84 79 71 63 56 44 31 23 21 17 14 11 8 5 4 3 3 5 16 36 51 58 64 68 65 62 69 83 86 76 68 66 59 47 41 45 52 55 56 61 74 88 96 94 86 79 78 77 73 70 73 78 82 86 88 89 91 93 93 93 93 93 91 90 87 83 78 73 67 62 59
45 47 50 54 59 60 56 58 67 72 73 77 82 84 84 81 76 72 69 63 49 33 25 22 18 15 12 9 6 4 4 3 4 12 32 50 60 66 70 70 65 67 78 86 83 76 73 67 52 38 34 37 40 42 49 62 77 87 88 85 87 94 96 89 87 92 97 98 99 100 99 100 101 100 100 100 101 100 99 98 95 90 85 82 79 77
43 46 50 53 56 59 57 53 55 61 65 70 79 85 83 78 76 76 73 65 53 38 28 23 20 17 13 10 7 5 4 4 3 8 24 44 59 66 67 67 67 66 72 83 87 82 78 73 58 39 30 32 34 37 44 54 67 79 89 94 98 103 105 103 102 103 103 103 101 100 101 100 100 100 101 102 100 98 98 98 96 93 92 93 93 92
46 49 53 55 55 56 59 61 64 71 78 78 76 77 80 82 82 80 74 68 58 44 32 26 22 18 15 12 9 6 4 4 3 4 14 33 54 63 62 63 65 64 66 77 85 85 83 79 66 45 30 28 32 35 41 50 61 75 87 94 98 100 101 102 101 98 95 94 95 98 100 98 97 99 101 103 101 96 93 93 94 95 96 97 99 99
52 55 60 66 67 66 71 81 88 90 91 90 84 82 86 88 86 82 77 72 64 51 38 29 24 20 17 13 10 7 5 4 3 3 7 21 42 56 58 59 64 66 65 70 79 84 85 85 76 55 35 27 29 35 40 46 55 68 79 85 89 89 87 86 88 86 82 78 81 88 92 93 93 93 93 97 99 96 91 89 92 96 97 98 102 103
55 58 61 68 76 81 83 84 84 84 87 89 88 87 89 90 89 86 81 75 68 59 46 34 26 22 18 15 12 9 7 4 4 3 3 10 28 46 54 55 59 66 68 68 73 79 83 87 84 68 44 29 29 34 40 46 52 59 67 71 73 72 71 71 74 75 73 71 73 77 79 81 84 84 84 86 89 91 92 92 94 96 91 90 98 104
51 56 60 63 67 75 84 85 83 82 83 85 87 88 90 90 90 88 84 79 72 64 52 39 30 24 20 16 13 10 8 6 4 3 3 4 15 34 49 53 54 61 67 69 72 78 83 88 92 83 58 35 28 33 41 47 53 59 64 68 71 74 72 68 64 63 63 65 66 64 63 64 66 69 72 76 79 85 90 94 99 100 90 86 93 100
48 53 60 63 62 67 79 88 89 86 83 83 87 89 89 90 90 90 88 83 77 69 59 45 34 27 22 18 15 12 10 8 5 3 4 3 6 20 40 52 53 54 61 67 70 75 83 89 95 94 76 49 32 32 41 50 57 66 74 80 85 87 82 72 62 56 54 55 56 56 57 58 57 55 55 59 66 76 84 91 100 103 97 93 94 93
51 53 57 61 62 65 71 79 82 80 79 82 85 86 87 89 90 90 90 87 81 73 64 53 42 32 24 20 17 14 11 9 6 4 3 3 3 8 26 45 54 52 55 63 69 73 80 86 91 93 87 69 46 33 37 50 58 65 73 82 86 87 85 82 76 69 63 60 60 61 63 63 60 55 51 50 52 57 63 73 85 93 94 96 98 96
52 55 56 57 58 58 62 67 70 69 72 78 83 85 86 87 87 90 92 91 85 78 69 60 50 39 29 23 19 15 12 10 7 5 3 3 3 3 11 30 49 54 53 57 65 71 75 80 85 88 88 83 67 45 35 42 53 61 67 74 79 82 85 88 90 88 85 82 80 80 78 74 69 67 65 64 64 65 64 66 75 84 88 90 93 95
54 57 58 57 56 56 57 61 64 65 68 76 83 87 88 87 87 90 92 91 88 83 76 68 57 45 34 26 21 17 14 11 9 6 4 3 3 3 3 12 32 49 55 55 60 68 74 78 83 86 86 85 81 66 46 36 42 55 64 67 68 71 76 82 85 85 86 87 88 91 91 88 84 83 81 78 79 82 80 79 85 93 96 94 93 90
58 60 62 60 59 59 58 59 62 65 69 75 82 87 89 88 88 89 90 90 89 85 81 74 65 52 40 30 24 20 16 13 10 8 5 3 3 4 3 3 12 30 48 56 59 64 71 76 82 89 91 89 87 83 69 50 38 42 56 65 63 59 61 68 73 74 75 77 80 85 90 92 89 87 84 83 82 83 85 88 93 97 96 92 89 84
Wind_Speed
44 45 47 48 51 53 54 57 58 56 55 54 55 57 55 53 52 52 53 55 58 59 60 62 64 65 66 67 68 68 66 64 61 59 56 55 54 53 52 51 50 50 52 54 55 58 60 60 61 62 64 66 67 69 70 71 72 73 74 76 78 79 81 83 84 84 85 85 86 86 86 87 87 87 87 87 87 88 88 89 89 89 89 90 90 91
47 47 49 51 53 55 56 58 59 58 57 56 57 59 56 53 53 53 54 56 59 60 60 61 63 65 66 66 66 66 65 63 61 59 57 54 52 51 49 47 47 49 53 56 59 62 60 58 59 61 62 64 66 68 70 71 73 74 75 77 78 80 81 82 83 84 85 86 86 87 87 88 88 88 88 89 89 90 91 91 92 92 92 92 92 92
49 49 52 53 55 56 57 60 61 61 60 59 60 61 57 53 54 56 56 59 62 62 61 62 64 65 65 65 64 64 63 62 60 58 55 53 50 48 46 45 47 50 55 58 60 62 61 61 63 64 65 67 69 71 72 74 75 75 76 77 78 80 81 82 83 84 85 86 87 87 88 89 89 89 89 90 91 92 92 93 94 94 95 95 96 96
51 52 54 55 56 57 59 62 63 64 64 61 61 61 58 55 56 60 61 60 63 63 63 64 64 64 64 63 63 63 62 59 57 55 53 51 48 47 45 45 48 52 56 58 61 62 60 61 63 64 65 66 68 70 72 73 74 75 77 78 78 79 81 82 84 85 86 86 87 88 89 90 91 91 91 92 92 93 93 94 94 95 96 97 98 99
54 55 56 57 58 59 61 64 65 67 67 64 63 62 60 57 58 62 63 63 64 61 61 65 65 62 61 61 61 61 59 57 54 53 52 51 50 48 47 48 51 54 57 59 61 60 58 58 61 63 66 67 68 70 71 73 76 79 80 80 80 80 82 83 85 86 87 88 88 89 90 90 91 92 93 94 94 94 95 95 96 97 98 99 100 101
56 56 57 58 59 61 63 66 67 70 71 68 66 64 61 61 62 65 65 66 67 64 62 66 67 64 60 60 60 58 56 54 53 52 52 52 51 50 50 51 54 57 59 61 62 60 58 58 61 65 69 70 72 75 77 78 80 82 83 82 81 82 83 85 87 88 89 89 90 91 92 92 93 93 93 94 95 96 96 97 97 98 100 101 102 103
58 57 59 60 61 62 65 68 69 71 74 72 70 68 64 63 66 68 67 67 68 67 64 64 66 66 62 58 57 55 53 53 53 53 52 52 51 50 52 53 55 58 60 62 62 60 60 61 63 67 70 72 77 80 80 81 81 82 84 85 85 86 88 89 90 90 91 91 92 93 93 94 95 96 96 96 97 97 98 98 99 100 101 103 105 106
59 58 60 61 62 63 66 68 70 73 75 74 72 70 67 67 69 71 69 67 68 68 63 60 62 64 61 56 53 53 53 54 53 53 53 52 51 51 52 54 56 59 61 62 62 61 62 64 65 68 70 75 79 80 80 81 80 83 88 90 90 92 93 93 92 91 91 91 92 93 93 94 95 97 97 98 99 99 99 99 99 100 102 104 106 107
61 60 61 63 64 65 67 69 71 74 76 75 73 71 70 71 73 73 70 69 70 68 62 59 60 62 61 56 53 54 54 54 53 53 52 50 49 50 52 55 57 60 62 63 64 64 65 66 67 70 73 77 79 80 81 81 83 88 94 95 95 96 95 92 91 90 90 90 90 91 92 93 93 94 96 97 98 99 99 99 99 100 100 101 103 103
62 62 63 65 66 68 68 69 72 73 75 75 74 73 72 72 74 74 70 69 71 67 62 61 60 61 63 58 54 56 56 53 51 49 49 48 48 50 52 55 57 60 62 64 65 67 68 69 71 74 76 78 79 80 81 83 88 95 98 99 99 96 93 91 90 89 88 87 86 86 87 87 88 89 89 90 91 92 93 93 92 92 92 92 92 91
64 64 65 67 68 70 71 71 73 74 75 76 75 76 76 76 76 75 72 72 73 71 66 64 62 61 65 62 56 57 55 49 47 46 48 48 50 52 54 56 59 61 63 65 67 69 71 73 75 77 78 80 82 84 87 91 95 99 100 100 97 93 91 90 89 87 85 84 82 81 80 80 80 80 80 81 81 81 81 80 79 78 78 77 75 73
64 64 65 68 68 70 72 73 74 74 75 77 76 77 80 82 83 81 79 78 78 76 72 68 64 63 65 64 59 57 52 46 45 45 47 48 51 53 55 57 60 63 66 68 71 74 76 78 80 82 84 86 89 91 94 97 99 100 100 98 94 90 88 86 84 82 80 79 77 76 75 74 74 73 73 73 72 71 69 68 67 66 64 62 60 59
63 65 66 68 69 70 73 75 77 76 76 78 77 77 80 85 88 88 84 83 81 79 77 70 67 67 66 64 60 54 48 46 45 44 45 48 51 53 55 58 61 65 69 72 76 78 80 82 85 87 91 93 95 97 98 100 101 101 98 95 90 85 82 80 78 76 75 74 73 72 70 69 69 68 67 67 65 63 61 60 59 56 53 50 48 48
63 66 67 69 70 71 75 79 82 82 80 79 78 78 78 80 86 88 85 84 82 81 80 73 70 71 68 64 58 50 46 45 43 43 45 47 50 52 56 60 65 69 74 78 81 83 86 88 91 93 95 96 97 98 99 99 98 96 92 88 84 80 78 76 75 73 72 70 69 68 67 65 63 62 61 61 59 57 54 53 51 48 45 43 40 39
65 69 70 71 73 74 75 79 83 84 82 80 78 78 77 76 81 85 84 83 83 83 82 77 74 73 69 65 57 49 46 44 42 43 45 48 52 58 63 68 72 76 80 83 85 87 89 90 91 92 93 93 93 93 93 93 91 89 87 83 80 78 76 74 72 71 69 67 65 64 62 59 57 57 55 54 53 50 48 47 45 42 40 37 36 36
65 68 71 72 74 76 76 77 81 83 82 81 80 80 79 75 77 83 82 81 84 86 83 79 77 74 70 65 55 48 46 45 46 51 54 60 66 71 73 74 76 78 79 81 82 83 85 85 86 86 87 87 86 86 86 86 85 83 80 78 75 73 71 69 67 66 64 62 60 58 56 52 51 51 50 49 48 46 45 44 41 38 36 35 35 36
66 67 70 72 75 77 77 77 79 81 82 83 82 82 83 80 77 80 81 82 86 88 84 79 79 77 72 65 55 50 50 50 56 63 66 70 72 72 72 72 73 74 75 75 76 76 76 76 77 77 78 77 77 77 77 75 74 72 70 68 66 64 62 60 58 57 57 55 53 51 48 46 45 46 45 44 43 43 42 40 38 36 34 34 34 35
67 68 71 74 76 78 80 80 79 81 83 84 84 84 86 86 83 80 80 82 85 88 86 82 80 79 73 65 57 52 54 58 64 68 69 69 69 69 69 69 69 68 68 66 65 65 65 65 66 67 68 68 68 68 67 65 63 61 60 58 56 55 52 50 49 49 48 47 45 43 41 40 40 42 41 40 41 41 39 38 36 35 33 33 33 33
68 69 71 75 77 79 82 83 82 83 85 86 85 85 86 87 87 84 79 78 81 84 89 89 85 79 72 63 57 55 60 66 69 69 70 70 70 70 68 66 64 63 61 60 58 58 58 58 58 58 59 59 59 59 59 57 55 53 52 50 48 46 44 43 42 41 40 38 37 37 36 35 36 38 38 38 39 38 37 37 36 36 34 34 33 33
69 71 72 75 78 80 83 85 86 88 89 89 87 85 84 84 87 87 81 78 80 82 87 91 89 81 70 61 57 61 67 71 71 71 71 70 67 66 65 63 61 60 58 56 54 52 51 50 49 49 49 49 49 50 49 48 47 46 45 43 42 40 39 37 36 35 33 32 31 31 31 31 32 34 34 35 36 35 36 36 37 37 36 35 34 35
68 71 73 74 76 80 84 87 89 89 89 90 88 85 85 84 87 89 87 84 84 83 84 89 90 84 71 61 61 68 72 71 71 71 67 62 59 58 58 58 58 57 56 55 53 51 49 47 45 44 44 43 42 40 40 39 39 38 37 37 36 35 34 32 31 29 28 28 27 27 27 27 28 29 30 32 33 33 34 36 36 37 37 37 36 36
68 71 73 74 76 79 82 85 87 87 86 87 87 86 85 85 87 89 91 90 88 85 84 85 88 84 71 65 68 72 72 71 70 67 60 54 52 53 53 54 56 56 57 56 55 53 51 49 47 45 43 41 39 37 35 33 32 32 31 31 31 30 29 29 27 26 26 25 23 22 21 21 23 25 27 28 30 32 33 34 34 35 36 37 36 37
67 69 71 73 75 77 79 82 84 84 84 85 87 87 86 86 87 88 91 93 91 89 87 85 88 84 73 69 72 73 72 70 67 60 53 49 49 50 53 55 56 57 57 56 55 55 53 51 49 47 44 41 39 36 34 32 30 28 28 27 27 26 26 25 24 23 22 20 18 16 15 16 19 22 24 26 28 29 30 30 30 30 31 32 33 34
67 70 71 71 71 72 75 80 84 85 84 86 88 89 87 87 88 89 90 93 93 92 88 87 91 87 75 72 74 73 73 70 62 54 49 47 48 50 54 56 57 57 56 55 54 53 52 51 48 46 43 41 38 36 34 33 32 30 29 28 28 27 26 25 24 23 22 20 18 16 15 16 19 21 23 25 26 27 28 28 28 28 29 30 31 32
68 71 75 76 76 76 78 83 87 89 88 86 88 91 89 88 90 91 91 93 94 93 89 87 92 89 79 77 77 76 74 69 59 50 45 46 50 53 55 58 59 58 57 56 53 51 49 48 46 44 42 40 38 36 35 33 32 32 31 30 29 28 28 28 27 25 24 22 21 20 20 20 21 22 23 25 26 27 29 29 29 29 30 31 30 31
69 71 75 80 82 85 87 89 91 92 91 88 89 91 90 89 91 93 93 94 95 96 91 85 89 90 84 81 81 78 75 69 57 48 44 46 50 55 58 60 60 59 57 55 53 51 48 46 44 42 40 39 37 36 35 34 33 32 31 30 29 28 27 27 26 25 24 24 23 23 23 23 23 24 25 27 28 29 30 31 31 29 30 30 29 30
68 71 74 78 81 83 85 87 87 89 91 90 89 92 92 91 92 93 93 94 95 98 95 88 87 90 88 85 84 80 77 70 59 50 46 47 50 55 59 61 61 59 56 55 53 50 48 46 43 42 40 39 37 36 35 34 33 32 29 28 27 26 26 25 25 25 24 24 24 24 24 25 26 26 27 28 28 29 29 30 30 28 28 28 27 30
68 70 72 75 79 80 82 84 85 87 89 90 90 92 92 92 92 93 93 93 94 97 99 94 89 90 90 88 85 81 78 72 61 52 49 49 51 55 59 61 59 56 54 52 51 49 48 46 44 42 41 39 37 36 35 34 32 30 27 26 26 25 25 25 25 24 24 24 24 24 24 25 25 25 26 27 27 28 27 27 27 26 24 24 25 29
68 70 72 74 76 79 80 82 85 86 88 90 91 91 92 92 92 93 92 93 94 94 96 96 93 91 91 88 85 80 76 70 61 52 49 49 51 55 59 59 57 54 52 51 49 48 47 45 43 42 40 39 38 36 35 32 30 28 27 26 26 26 26 26 25 24 24 24 24 24 24 23 23 22 22 23 23 24 24 24 24 23 21 21 24 28
68 70 72 74 75 77 79 81 84 86 87 90 91 91 92 91 91 92 92 93 94 94 94 96 95 92 90 88 84 78 73 67 58 50 48 48 51 55 58 58 56 54 53 52 50 48 46 43 42 40 39 38 37 36 34 31 29 28 27 27 27 27 26 25 25 24 25 25 25 25 24 23 22 20 19 18 17 17 17 18 19 19 18 19 21 23
67 70 72 74 75 76 78 79 82 84 87 89 91 91 92 92 91 92 94 95 96 97 96 96 97 95 92 89 83 75 70 65 55 48 47 49 52 56 58 57 55 55 54 52 52 50 47 44 41 39 38 37 36 34 32 30 29 28 28 29 28 28 26 25 24 24 24 24 24 24 23 22 20 18 17 15 12 9 8 9 11 13 14 15 17 18
66 69 71 73 74 76 77 79 81 84 86 89 90 92 94 95 93 91 93 94 96 99 99 99 99 98 94 90 84 76 70 65 56 50 49 51 54 57 58 56 55 54 53 52 51 50 48 45 42 39 37 36 34 31 29 29 29 30 30 30 29 27 26 25 24 24 23 22 22 22 21 20 18 17 16 15 13 9 4 1 4 7 9 11 13 15
66 68 70 72 74 75 77 80 82 84 86 89 92 94 95 95 93 91 91 93 95 97 99 100 99 97 93 91 88 80 73 67 60 54 53 54 56 58 58 56 55 53 52 51 51 50 48 45 42 39 37 35 33 31 30 30 30 30 30 29 28 28 27 26 25 24 23 22 21 21 20 19 17 17 17 17 16 14 11 9 7 5 6 8 10 11
65 68 71 73 75 77 78 79 82 85 87 91 93 94 93 92 91 89 89 92 94 95 96 98 98 96 94 93 91 83 74 68 61 56 56 57 57 57 56 55 54 52 50 50 50 49 48 45 42 40 37 35 33 32 31 31 31 30 29 29 28 29 28 27 26 25 24 23 22 21 21 19 18 17 17 18 18 16 14 12 10 7 6 6 6 6
65 67 70 73 76 78 79 80 83 86 89 91 92 91 90 89 89 87 86 89 92 94 96 97 98 99 98 96 92 84 73 66 60 55 54 56 57 56 54 53 52 50 48 48 49 48 47 45 43 40 37 35 34 33 32 31 30 29 28 28 29 29 29 28 27 25 24 23 22 21 20 20 19 18 18 17 16 15 14 12 10 8 6 4 3 4
64 67 70 73 75 77 80 82 84 86 87 88 88 89 89 90 91 91 89 89 91 95 97 98 99 101 101 98 94 86 74 65 59 55 53 54 56 54 53 52 51 48 47 47 48 49 48 47 44 42 39 37 35 33 31 30 29 28 28 28 29 29 28 27 26 25 24 23 22 20 20 20 20 19 18 17 16 15 13 11 9 7 4 2 1 4
64 66 70 73 75 78 79 81 81 83 86 87 87 88 90 91 92 93 92 91 92 95 97 99 100 102 102 100 96 89 77 65 57 53 52 54 54 53 52 52 50 47 45 46 48 49 49 48 46 44 41 38 36 33 30 29 29 29 29 29 29 29 27 25 24 23 23 22 21 20 20 20 20 19 18 17 16 15 13 12 10 8 6 3 2 3
63 66 69 72 76 78 80 81 82 84 87 89 88 87 89 89 90 91 91 90 91 94 96 98 100 102 103 102 99 93 84 70 59 53 51 52 53 51 50 50 49 46 44 44 46 48 49 49 48 46 43 39 37 34 32 30 30 30 30 30 29 28 26 24 23 22 23 22 21 20 20 20 20 19 19 18 17 16 15 14 12 10 8 7 5 4
62 65 68 72 75 78 80 82 84 86 87 89 89 88 88 87 88 91 91 89 89 93 96 98 100 101 102 102 99 96 91 80 68 58 53 51 52 51 49 48 47 45 43 43 44 46 48 49 49 47 44 40 38 36 34 33 32 31 30 29 27 26 26 25 24 24 24 24 23 22 23 23 23 23 22 21 20 19 18 17 16 14 12 11 9 8
61 64 67 71 74 78 80 81 84 86 87 88 88 88 88 88 88 90 93 93 92 93 95 98 99 100 101 101 99 97 93 86 76 65 57 54 53 52 50 47 45 43 42 41 42 44 46 48 48 47 44 41 40 39 37 35 33 31 29 27 26 27 27 27 27 27 26 26 25 25 25 25 24 24 23 23 22 21 20 19 18 17 15 14 13 12
61 64 66 70 73 76 79 81 83 85 86 87 88 88 88 89 89 89 92 95 94 92 93 96 98 98 100 100 99 96 92 88 79 69 60 55 53 51 49 48 46 44 41 39 39 41 44 47 48 47 44 42 41 40 38 36 33 31 29 28 28 29 29 28 28 27 27 26 26 25 25 24 24 23 23 23 22 22 21 20 20 19 18 18 17 16
62 64 66 69 72 75 77 80 81 82 83 85 87 87 88 89 91 90 91 92 92 91 91 93 96 97 98 99 98 96 92 88 80 71 62 56 53 51 49 47 46 43 41 39 38 39 41 44 46 46 43 41 40 39 38 36 34 32 30 30 30 30 29 28 27 27 26 26 26 25 25 24 23 23 23 23 22 22 21 21 21 21 21 20 19 17
62 64 66 68 71 74 76 79 81 83 84 85 86 87 87 88 89 90 90 89 89 89 90 91 93 96 96 97 97 95 93 89 82 74 66 58 53 51 50 48 46 43 41 38 37 37 39 41 44 44 42 39 38 38 37 35 33 31 31 30 30 30 29 28 27 26 26 25 25 25 24 23 23 23 23 23 23 22 21 21 20 21 21 22 21 19
62 64 66 68 71 74 76 79 81 83 84 85 87 87 88 87 87 88 89 88 87 88 88 89 92 94 95 96 97 96 94 91 86 78 70 62 54 51 49 48 46 44 42 39 37 36 37 39 41 42 40 37 36 36 35 34 32 30 30 29 30 30 29 27 25 24 24 24 23 23 22 22 22 22 22 22 22 22 21 20 20 20 21 22 22 20
61 63 66 68 70 72 75 76 78 80 82 84 85 86 86 86 86 86 87 87 87 88 88 89 90 92 94 95 96 96 95 93 89 83 75 66 57 52 49 48 46 44 43 41 38 37 36 36 38 39 38 36 34 33 32 32 31 29 28 28 28 28 27 24 23 23 23 23 23 22 22 22 22 23 23 23 22 22 21 20 20 20 21 22 22 20
61 62 64 66 68 70 72 74 77 79 81 82 83 84 85 85 85 85 85 85 86 87 88 88 89 91 93 94 94 95 95 94 92 86 79 70 61 53 49 47 45 43 42 41 40 38 36 35 35 36 36 34 32 30 29 29 28 28 27 26 26 26 24 22 20 20 21 22 23 22 22 23 23 23 23 23 23 22 21 21 20 20 21 23 23 21
60 62 63 65 68 70 71 73 76 78 80 82 83 84 84 85 85 85 85 84 84 86 87 88 88 90 91 93 93 94 95 94 93 89 83 75 66 56 50 46 45 43 41 40 39 38 37 35 34 33 33 32 30 27 26 26 26 26 26 26 25 24 23 21 19 18 19 20 21 22 22 22 23 23 23 22 22 21 20 19 19 19 20 22 22 22
60 61 63 65 67 69 70 72 74 77 79 81 82 83 84 84 85 85 85 84 84 84 85 87 88 89 90 91 92 93 94 94 93 90 87 81 72 62 53 47 44 44 42 40 39 39 38 36 34 31 30 29 27 25 24 23 24 25 25 25 25 24 23 21 20 18 18 19 19 20 20 20 20 20 20 20 20 20 19 19 18 17 18 19 19 19
60 61 62 64 66 68 69 71 73 75 78 79 81 83 84 84 85 85 85 84 84 83 84 85 87 88 89 90 91 92 93 93 92 90 88 85 79 71 60 50 45 43 43 41 39 38 37 36 34 32 29 27 25 24 22 21 22 23 23 23 23 23 22 22 21 21 20 20 19 19 19 19 19 19 19 19 20 20 20 20 19 18 17 17 16 16
60 61 62 63 65 67 69 70 72 75 77 79 81 83 84 85 85 85 85 84 84 84 84 84 85 87 88 88 90 91 92 92 91 89 87 85 83 78 69 58 49 43 42 41 40 39 38 36 35 34 31 28 25 23 21 20 19 20 20 21 21 21 21 21 21 21 21 21 21 21 20 20 19 19 19 19 19 19 19 19 19 18 17 16 15 15
59 60 61 63 64 66 68 70 72 74 77 79 80 82 83 84 84 85 85 85 85 85 85 84 84 85 86 87 88 89 91 91 91 89 86 84 83 80 75 67 57 48 42 41 40 39 38 37 36 35 33 31 27 24 21 19 18 17 17 17 18 18 18 19 19 20 21 22 22 22 21 20 20 19 19 19 18 18 17 17 18 17 16 15 15 15
Wind_Direction
356 355 354 354 354 354 354 353 352 350 346 342 339 339 337 334 334 332 326 323 320 319 318 315 313 311 310 311 311 311 312 313 313 311 309 306 302 300 299 298 296 293 288 282 279 282 285 283 280 278 276 274 273 272 270 269 268 267 266 265 264 264 264 264 264 264 263 262 261 259 258 257 256 255 255 254 254 254 254 254 254 253 253 253 253 253
356 355 354 354 354 354 353 353 353 352 349 345 342 342 340 335 336 336 329 325 323 320 319 317 314 313 313 314 314 314 315 314 314 313 311 309 307 306 304 302 299 295 289 284 283 287 288 286 284 281 278 276 274 273 272 271 271 270 269 269 269 269 269 269 268 267 266 265 264 263 261 260 258 257 256 255 254 254 254 253 253 253 253 253 253 252
355 354 354 354 354 354 353 354 354 353 352 348 345 344 343 337 336 341 337 330 326 323 322 319 316 316 317 317 317 316 316 316 316 316 314 314 312 310 307 304 300 293 288 285 284 286 288 288 286 284 282 280 278 276 275 273 273 273 273 273 273 273 273 272 272 271 270 268 268 267 265 264 262 261 259 258 257 256 255 255 254 254 254 253 253 253
356 356 355 354 354 354 354 354 354 355 354 350 346 346 345 340 337 340 341 337 331 326 323 320 319 321 320 319 318 318 319 320 319 318 317 316 314 312 308 302 296 291 288 287 287 289 290 290 289 289 287 285 282 279 277 276 276 276 277 277 276 276 275 275 274 274 273 272 271 270 269 268 266 265 263 262 261 260 259 258 258 257 256 255 254 254
357 357 356 355 355 354 354 355 354 355 355 353 349 347 346 344 340 340 341 340 336 330 325 322 322 323 322 321 321 321 322 322 320 319 318 317 314 311 306 301 296 294 292 292 292 293 292 290 290 290 288 285 282 280 279 279 279 279 279 278 278 278 277 277 276 276 275 274 273 272 271 270 269 268 267 266 265 264 263 262 262 261 260 259 258 257
358 357 356 355 355 355 354 355 355 354 355 355 352 350 348 345 343 343 342 340 338 335 330 326 323 324 326 326 325 325 325 322 320 319 318 315 313 309 305 301 299 297 295 295 295 294 294 292 290 288 286 286 284 282 281 281 282 283 281 280 280 280 280 280 280 278 277 276 274 273 272 271 270 270 269 269 268 267 266 266 266 265 265 264 263 261
359 357 357 356 356 355 354 355 355 354 355 356 354 352 350 347 345 345 345 341 338 337 334 329 325 324 329 330 328 327 324 322 321 319 317 314 310 305 302 299 297 296 295 295 296 295 294 291 288 287 287 287 286 285 286 288 288 286 285 286 286 286 285 284 283 281 279 277 275 274 273 272 271 270 269 269 269 268 268 268 268 268 268 267 266 265
359 358 357 357 357 356 355 355 355 355 355 356 355 354 352 349 347 347 348 344 339 339 337 332 327 326 331 335 331 327 324 323 322 318 315 312 307 302 300 299 298 297 297 297 298 296 293 291 288 288 287 286 287 288 290 289 287 286 287 288 288 288 288 287 285 282 280 278 276 275 274 273 272 271 270 269 269 269 268 268 268 268 268 268 268 267
360 359 358 358 358 357 356 356 356 356 356 356 356 355 354 351 349 349 349 346 341 341 340 336 333 330 335 340 334 328 326 324 322 317 314 311 306 302 299 298 299 299 300 300 300 297 295 293 291 289 288 287 288 289 288 285 282 283 286 287 288 289 289 288 286 285 283 281 279 277 275 274 273 272 271 270 269 269 268 268 268 268 268 268 268 267
360 0 358 359 359 358 357 357 358 357 356 356 355 355 355 352 350 351 349 346 344 345 342 341 339 334 338 343 336 330 329 325 322 318 314 310 304 300 298 297 298 299 299 299 298 296 295 294 292 289 289 288 288 286 284 282 282 284 286 287 289 290 290 289 289 287 285 283 281 279 278 276 274 273 272 271 270 269 268 268 268 267 267 266 266 266
359 0 359 359 360 359 358 359 359 358 356 355 354 354 355 354 352 353 350 347 346 348 347 344 342 337 339 343 338 333 331 326 322 317 311 308 303 301 299 298 298 298 298 297 296 295 294 292 290 288 288 287 286 285 284 283 284 285 287 288 290 291 292 291 289 288 286 285 283 281 280 278 276 275 273 272 271 270 269 268 266 265 264 264 263 263
358 360 359 359 360 359 359 360 0 359 356 355 354 353 354 354 354 354 353 350 348 350 349 346 345 341 340 343 341 336 331 324 318 313 308 305 302 300 299 298 298 298 298 297 295 294 291 289 288 287 287 286 285 285 285 285 286 287 288 290 291 291 290 289 287 286 285 284 283 282 281 279 277 276 274 272 271 270 269 267 265 263 261 260 260 259
359 360 360 359 0 0 359 360 1 0 358 357 356 354 353 353 353 354 353 350 348 349 350 347 345 343 343 344 341 334 327 321 316 311 307 304 301 300 300 299 298 296 296 294 292 291 289 288 287 286 286 287 287 286 287 287 288 289 290 290 290 288 287 285 284 283 283 282 282 281 280 278 277 275 273 271 269 268 266 263 260 258 257 256 255 256
360 360 1 0 1 1 360 360 1 1 1 359 357 355 353 350 350 350 350 348 346 346 350 349 346 345 345 344 340 332 325 320 314 309 306 303 301 299 298 296 294 293 292 291 290 288 287 287 286 287 288 288 289 289 288 289 289 289 288 287 287 285 284 283 282 282 281 281 280 279 278 277 275 273 270 268 266 264 261 257 255 253 252 250 249 252
3 0 1 2 1 2 2 1 1 2 2 0 359 356 354 351 349 349 349 346 343 344 349 350 348 346 344 342 339 333 325 318 312 308 304 302 301 299 296 294 293 291 291 290 289 288 288 289 289 289 290 290 289 289 289 289 288 288 288 287 286 285 283 282 281 281 280 279 278 277 277 275 273 270 267 264 263 259 255 251 249 247 245 244 245 249
5 3 2 2 2 2 3 2 2 2 2 1 0 358 356 353 349 350 350 347 344 345 348 350 349 348 345 342 340 332 324 320 316 314 311 307 305 303 301 299 297 295 294 293 292 292 291 291 291 290 290 289 289 290 289 289 289 289 289 289 287 286 284 283 281 280 279 278 277 277 276 274 270 266 263 260 257 254 250 248 246 243 241 241 245 248
6 5 3 2 3 3 4 4 3 3 2 1 0 360 359 356 350 348 349 349 348 347 348 348 349 349 347 344 340 332 327 323 319 316 313 310 308 307 305 304 302 300 299 298 298 297 296 295 294 293 293 293 293 292 292 292 292 292 291 290 289 288 286 285 283 281 280 279 278 277 275 271 266 262 259 254 251 249 249 247 246 243 241 242 245 248
4 6 4 3 3 3 4 4 4 3 2 1 1 0 360 359 355 350 347 348 348 348 348 349 348 349 348 344 339 333 326 321 319 318 316 315 314 313 313 311 310 310 310 309 308 307 305 303 301 300 299 298 297 296 296 297 297 296 295 294 293 292 291 289 286 284 283 282 280 278 273 268 263 259 254 249 247 248 248 248 247 246 244 245 247 250
2 5 5 4 4 4 3 3 4 4 3 3 3 1 359 359 357 353 349 346 345 346 348 350 351 351 350 343 337 331 325 323 325 324 323 323 322 322 323 324 324 324 323 321 318 315 313 310 308 306 304 303 301 301 302 302 302 301 300 300 300 298 296 294 291 290 289 286 282 277 270 265 259 254 249 245 246 249 249 249 250 251 251 251 252 253
0 3 5 6 4 3 2 3 4 4 4 3 3 3 1 360 358 357 353 347 345 346 347 349 352 354 351 343 335 330 328 330 331 329 328 329 331 332 335 336 336 335 333 330 328 325 322 319 316 313 311 310 309 308 308 307 307 307 307 307 306 305 304 302 300 297 295 290 283 276 269 263 255 248 243 243 246 249 250 251 252 253 255 255 255 254
360 1 4 6 5 4 3 4 4 4 3 3 3 2 2 1 360 359 358 352 349 348 347 346 349 354 351 342 335 333 334 336 334 333 335 339 342 344 345 346 345 344 343 343 342 340 338 334 330 327 325 323 321 319 317 316 316 315 315 314 314 313 312 309 307 304 299 293 286 278 270 260 251 243 241 244 247 248 248 250 251 251 253 254 255 254
360 1 3 5 6 5 5 4 3 4 4 3 4 4 2 0 358 358 358 357 353 351 349 345 347 353 352 342 338 337 338 339 337 338 342 347 350 350 350 351 350 350 350 351 351 350 349 347 345 343 341 338 336 334 332 330 328 326 325 323 323 323 321 318 315 311 305 300 293 284 272 257 247 244 245 248 250 249 248 247 248 247 247 249 251 251
0 1 3 5 6 6 5 3 3 4 5 5 5 5 4 1 359 356 355 356 354 352 352 348 348 354 352 343 341 341 341 342 342 342 345 350 352 350 350 351 350 350 350 350 352 353 354 354 353 353 352 349 348 347 345 344 343 341 339 338 338 337 335 332 329 325 321 316 308 295 279 263 255 254 255 256 257 255 252 249 248 246 243 243 245 246
1 1 2 4 6 5 4 3 4 6 7 7 6 6 6 3 1 359 356 356 355 354 353 350 350 355 353 346 344 345 344 346 346 346 347 349 351 350 350 350 349 348 348 348 349 351 352 354 355 355 355 355 354 354 353 353 353 353 352 350 350 348 346 344 341 338 334 329 322 310 296 283 275 270 266 265 263 262 259 254 250 249 248 246 245 245
2 2 1 2 3 4 4 4 6 7 8 8 7 6 6 4 2 1 360 358 357 356 355 351 350 354 354 349 348 348 347 348 349 348 348 348 350 351 352 351 350 349 348 347 347 347 348 349 350 351 353 353 354 355 355 355 354 354 352 349 348 347 345 343 341 339 335 329 323 315 305 295 287 280 274 270 266 264 262 259 254 253 253 252 249 244
3 3 2 2 4 5 5 6 6 6 7 8 7 6 6 5 3 2 0 359 358 358 358 353 350 353 355 352 351 350 348 350 352 351 350 350 352 352 352 352 351 350 350 349 348 348 347 345 345 345 346 348 349 350 351 351 350 349 347 346 346 346 345 342 339 337 333 328 323 317 309 301 293 286 280 274 270 266 264 262 260 258 255 254 249 242
3 5 5 4 5 6 6 6 6 5 6 7 7 7 7 5 3 2 1 359 358 358 359 356 352 353 355 354 353 352 349 351 353 353 352 353 354 353 353 353 352 351 351 351 351 350 349 348 346 344 343 343 344 344 345 346 346 348 350 351 352 351 350 347 343 340 335 330 325 319 312 305 299 292 285 279 274 270 266 264 262 260 256 252 247 240
2 5 6 6 6 7 6 5 5 5 5 6 7 7 8 6 4 3 3 1 359 357 358 359 356 354 355 355 354 352 350 351 354 353 352 353 354 354 354 353 352 352 352 352 351 351 350 351 351 350 349 348 347 347 348 350 352 355 358 359 358 356 354 351 347 343 339 335 331 326 320 313 306 299 292 285 279 273 268 264 261 258 255 250 243 240
2 4 7 7 7 7 6 5 5 5 5 5 6 7 8 7 4 4 4 3 1 358 357 358 358 357 356 357 356 353 350 351 354 354 352 352 353 354 354 353 353 353 353 353 352 351 350 350 351 353 353 353 354 355 357 358 0 2 3 2 359 356 354 351 348 345 343 341 339 337 333 328 321 314 305 295 286 277 269 263 258 255 251 245 240 240
2 4 6 7 7 7 6 5 5 5 5 5 6 7 8 8 6 5 5 3 2 0 358 358 359 359 358 359 358 355 350 351 354 355 354 354 354 354 354 354 355 355 355 355 354 353 351 350 349 351 352 353 355 357 359 2 4 5 3 0 357 354 352 350 349 349 348 348 348 347 345 344 339 333 326 316 301 285 273 263 255 248 245 240 237 238
2 3 5 6 6 6 5 5 4 5 5 5 6 6 7 10 9 6 5 4 3 2 0 358 359 1 1 1 360 356 352 353 357 358 357 358 357 356 356 357 357 357 357 357 358 358 358 356 354 353 353 354 357 359 3 5 5 4 1 357 355 354 353 353 354 353 353 354 355 355 355 355 355 353 353 351 341 316 285 262 246 237 235 234 231 229
1 3 5 6 6 5 5 4 4 5 4 4 5 6 8 11 12 9 6 5 3 3 2 359 359 1 2 1 1 359 355 355 359 0 0 1 359 357 358 359 359 358 359 0 2 3 3 3 2 1 1 1 4 6 8 7 4 1 358 357 357 358 358 359 359 359 360 1 3 4 5 7 10 16 23 28 30 34 45 110 192 207 214 216 214 213
0 2 4 5 5 5 4 4 4 4 4 5 6 8 9 11 12 10 8 7 6 4 3 1 359 0 1 1 2 1 357 357 359 1 2 1 0 359 359 360 360 0 1 3 5 6 6 7 7 8 8 8 9 9 8 5 2 0 1 3 5 6 6 6 5 6 7 7 9 12 15 19 26 33 41 48 54 59 68 82 103 139 170 184 192 197
360 1 3 4 4 4 4 4 3 3 5 7 7 8 9 10 11 10 8 8 8 7 6 4 2 1 1 2 3 2 359 357 359 1 1 0 0 0 0 1 1 1 3 4 6 8 8 8 8 9 10 9 9 7 4 2 2 3 6 9 10 11 12 11 11 12 12 13 15 18 21 26 33 40 47 53 59 64 69 76 85 99 123 147 167 185
359 0 2 3 4 4 3 3 4 5 7 8 7 7 8 9 11 12 10 9 9 8 7 6 5 4 4 4 4 4 1 358 359 1 0 359 360 0 1 1 2 2 4 6 8 9 9 8 8 8 7 7 6 5 4 4 6 8 9 10 10 11 11 13 14 15 16 17 20 22 25 29 34 40 45 50 56 62 67 73 80 87 101 127 166 203
358 360 1 2 3 4 3 4 6 6 6 7 7 7 7 7 10 12 13 10 8 8 8 7 7 7 7 6 7 7 5 0 359 0 360 360 1 1 1 2 3 4 6 7 9 10 10 9 8 7 6 6 5 5 6 7 8 9 9 9 9 9 10 11 14 17 19 20 21 24 27 31 35 38 41 43 46 50 55 60 66 70 76 91 222 247
358 359 1 2 3 3 4 5 5 4 5 7 8 8 8 8 8 10 11 11 9 8 8 8 8 7 8 8 8 9 8 5 1 360 360 1 2 2 2 2 3 4 6 8 9 10 10 10 9 8 7 6 7 8 8 9 9 8 8 8 7 8 9 11 15 19 22 23 24 27 30 34 37 39 41 43 44 45 47 49 50 49 45 33 351 302
358 359 0 1 2 3 4 4 4 5 5 6 8 9 10 10 9 10 11 11 10 9 9 9 8 8 7 8 8 9 10 9 6 3 2 3 3 4 3 3 3 4 6 8 10 10 10 10 9 8 8 7 7 6 5 5 4 4 5 6 7 9 12 14 17 22 25 25 25 29 35 39 40 41 43 44 46 47 47 47 45 43 38 30 17 356
358 359 360 1 2 2 4 5 5 5 5 6 8 9 9 9 10 10 11 12 12 11 10 10 9 8 7 7 7 8 9 10 9 7 6 5 5 5 5 5 4 4 5 7 9 10 11 10 10 9 9 8 7 5 3 2 1 2 5 9 13 16 19 21 24 28 31 32 34 38 43 47 48 48 49 49 51 51 51 50 49 47 44 40 33 23
357 359 360 1 2 2 3 5 5 5 5 6 7 8 9 9 9 9 10 13 14 12 11 10 9 8 7 7 7 7 7 8 8 8 7 7 7 6 5 5 5 5 5 5 7 9 10 11 11 10 10 10 10 10 9 8 8 10 16 21 25 27 28 30 34 38 39 41 43 45 47 48 49 50 51 51 51 51 50 48 46 44 42 39 35 30
357 359 360 1 2 2 2 4 6 6 5 5 6 7 9 9 9 8 9 11 13 13 12 11 10 9 8 7 7 7 7 8 7 7 6 6 7 7 5 5 5 5 4 4 6 8 10 10 11 11 12 13 14 15 16 18 21 25 29 32 33 34 34 37 40 42 41 41 41 41 42 44 45 47 47 46 46 44 42 39 37 35 33 30 28 25
356 358 359 0 1 2 2 3 4 5 5 5 6 7 7 8 9 10 10 10 12 13 12 11 11 10 9 8 8 8 8 8 8 7 5 5 7 7 6 5 5 5 4 3 4 6 9 10 11 12 13 15 17 19 22 26 31 34 35 36 36 37 37 37 37 37 36 36 35 36 37 38 40 42 42 41 40 39 38 36 33 32 30 29 27 23
356 357 358 360 0 1 1 2 3 4 5 6 6 7 7 8 9 10 11 11 11 13 13 12 11 11 10 9 9 8 8 9 9 8 6 5 6 6 6 5 6 6 5 3 2 4 7 10 12 13 14 17 20 23 27 31 34 36 37 37 38 37 35 33 31 31 31 31 31 32 33 35 36 36 37 36 35 35 35 34 32 30 29 28 24 20
356 356 357 359 360 1 1 2 3 4 4 5 5 6 7 9 9 10 11 11 11 12 13 13 12 12 11 10 10 9 9 9 10 10 8 6 5 5 5 5 6 6 6 5 3 3 5 9 12 14 15 17 21 25 29 32 35 36 37 37 36 35 33 30 29 29 28 28 28 29 31 32 31 30 32 32 31 31 31 31 29 26 26 26 22 16
356 357 357 358 359 0 1 2 2 2 4 4 5 6 7 8 9 9 10 11 11 12 13 13 13 13 12 11 11 11 10 9 10 11 11 9 6 4 4 5 6 6 6 6 5 4 5 7 11 13 15 17 21 25 29 30 32 33 33 33 32 31 30 29 27 26 25 25 26 26 27 27 26 25 26 27 27 28 28 28 25 21 22 25 22 17
355 357 357 357 358 360 0 0 1 2 3 4 5 5 6 7 8 9 10 10 11 11 12 13 14 13 13 12 12 11 11 10 10 11 11 11 8 5 4 4 5 5 6 6 6 5 5 6 8 12 14 15 19 23 26 28 28 28 27 26 26 27 28 28 26 23 21 21 22 21 21 21 19 17 18 19 22 24 23 23 21 17 18 21 19 17
355 356 357 357 357 359 359 360 0 1 2 3 4 5 6 7 8 9 9 10 11 11 12 13 14 13 13 13 12 12 12 11 11 10 11 12 10 7 4 3 4 4 5 5 5 5 5 6 6 9 12 13 15 19 22 24 25 24 24 24 24 26 28 27 25 21 17 14 14 13 13 12 10 10 10 12 15 20 21 20 19 16 17 17 13 11
354 355 356 357 357 357 358 359 360 360 1 2 3 4 5 6 7 8 9 10 11 12 12 12 13 14 14 13 13 13 12 12 12 11 11 12 12 10 6 3 2 3 4 5 5 5 5 5 5 6 8 10 12 14 17 19 19 20 20 21 23 25 27 27 26 23 19 14 11 9 8 6 4 4 5 5 8 12 16 20 21 20 19 17 11 4
354 354 356 357 356 357 357 358 359 359 0 2 3 3 4 6 7 8 9 9 10 11 12 11 12 13 14 14 14 13 13 12 12 12 11 11 12 12 10 6 2 1 3 4 5 5 5 5 4 4 4 6 8 9 10 11 13 14 15 16 18 20 23 26 26 25 23 20 16 13 10 8 6 6 6 6 6 7 9 13 18 20 19 17 11 3
353 354 354 355 356 356 357 357 358 359 360 1 2 3 4 5 7 8 8 9 9 10 11 11 11 12 13 14 14 14 14 13 12 12 12 11 11 11 11 9 6 2 1 2 4 5 5 5 4 4 3 3 4 5 5 4 5 7 10 11 13 14 16 19 21 21 21 20 18 17 15 13 12 11 12 13 13 12 10 10 12 15 16 15 11 6
353 353 354 354 355 355 356 357 358 359 360 1 2 3 3 4 6 7 8 8 9 9 10 11 12 12 12 14 14 15 15 14 13 12 12 12 11 11 11 10 9 5 2 1 1 3 4 4 4 4 3 1 1 360 359 357 357 358 1 3 6 7 8 10 12 14 14 14 14 14 14 14 15 15 15 16 16 16 14 11 10 9 9 8 8 7